Flag for Belgium Weather past 2 weeks in Brussels, Belgium

Now
43 °F

Passing clouds.


Feels Like: 36 °F
Forecast: 35 / 52 °F
Wind: 13 mph from West

Location: Brussels National Airport

Current Time: Mar 27, 2015 at 9:14:57 AM

Latest Report: Mar 27, 2015 at 8:50 AM


Visibility: N/A

Pressure: 30.07 "Hg

Humidity: 76%

Dew point: 36 °F

Location of BrusselsLocation

Historic Weather in Brussels — Graph

°F

Brussels temperature yesterday

Maximum temperature yesterday: 45 °F (at 7:20 PM)
Minimum temperature yesterday: 32 °F (at 5:50 AM)
Average temperature yesterday: 39 °F

Past Weeks' High & Low Weather Summary

 TemperatureHumidityPressure
High63 °F (Mar 17, 2:50 PM)100% (Mar 16, 8:20 AM)30.45 "Hg (Mar 16, 8:20 AM)
Low28 °F (Mar 23, 2:50 AM)32% (Mar 12, 12:50 PM)29.68 "Hg (Mar 26, 1:50 PM)
Average42 °F80%30.14 "Hg
* Reported Mar 12 7:20 AM — Mar 27 7:50 AM, Brussels, Weather by CustomWeather, © 2015

Note: Actual official high and low records may vary slightly from our data, if they occured in-between our weather recording intervals... More about our weather records

Advertising

Brussels weather history for previous 24 hours

 ConditionsComfort  
Time TempWeatherWind HumidityBarometerVisibility
7:50 AM
Fri, Mar 27
41 °FPassing clouds.13 mph81%30.04 "HgN/A
7:20 AM39 °FScattered clouds.13 mph81%30.01 "HgN/A
6:50 AM39 °FScattered clouds.14 mph87%30.01 "HgN/A
6:20 AM39 °FPassing clouds.13 mph87%29.98 "HgN/A
5:50 AM39 °FPassing clouds.12 mph81%29.98 "HgN/A
5:20 AM39 °FPassing clouds.12 mph81%29.95 "HgN/A
4:20 AM39 °FPassing clouds.13 mph81%29.95 "HgN/A
3:50 AM39 °FClear.13 mph81%29.92 "Hg10 mi
3:20 AM39 °FClear.13 mph81%29.92 "Hg10 mi
2:50 AM39 °FClear.12 mph81%29.89 "Hg10 mi
2:20 AM41 °FClear.12 mph76%29.89 "Hg10 mi
1:50 AM41 °FClear.13 mph76%29.89 "Hg10 mi
1:20 AM41 °FClear.12 mph76%29.89 "Hg10 mi
12:50 AM41 °FClear.13 mph81%29.86 "Hg10 mi
12:20 AM41 °FClear.12 mph81%29.86 "Hg10 mi
11:50 PM
Thu, Mar 26
43 °FClear.13 mph76%29.83 "Hg10 mi
11:20 PM43 °FClear.12 mph81%29.83 "Hg10 mi
10:50 PM43 °FClear.10 mph81%29.83 "Hg10 mi
9:50 PM45 °FClear.12 mph87%29.80 "Hg10 mi
9:20 PM45 °FClear.12 mph93%29.77 "Hg10 mi
8:50 PM45 °FClear.10 mph93%29.77 "Hg10 mi
8:20 PM45 °FPassing clouds.12 mph93%29.74 "HgN/A
7:50 PM45 °FPartly cloudy.12 mph87%29.74 "HgN/A
7:20 PM45 °FPartly cloudy.10 mph87%29.71 "HgN/A
6:50 PM43 °FLight rain. Partly sunny.13 mph93%29.71 "Hg5 mi
6:20 PM43 °FDrizzle. Broken clouds.15 mph93%29.71 "Hg4 mi
5:50 PM43 °FDrizzle. Broken clouds.16 mph93%29.68 "Hg2 mi
5:20 PM43 °FDrizzle. Broken clouds.17 mph87%29.68 "Hg2 mi
4:50 PM41 °FDrizzle. Broken clouds.17 mph93%29.68 "Hg3 mi
4:20 PM41 °FLight rain. Partly sunny.17 mph93%29.68 "Hg5 mi
3:50 PM41 °FRain. Partly sunny.16 mph93%29.68 "Hg4 mi
3:20 PM41 °FRain. Partly sunny.14 mph87%29.68 "Hg4 mi
2:50 PM43 °FLight rain. Broken clouds.14 mph81%29.68 "Hg5 mi
2:20 PM43 °FLight rain. Partly sunny.15 mph81%29.68 "HgN/A
1:50 PM43 °FLight rain. Partly sunny.16 mph81%29.68 "Hg6 mi
1:20 PM43 °FLight rain. Partly sunny.15 mph76%29.71 "Hg6 mi
12:50 PM43 °FLight rain. Scattered clouds.16 mph76%29.71 "HgN/A
12:20 PM43 °FPassing clouds.14 mph71%29.71 "HgN/A
11:50 AM43 °FPassing clouds.14 mph76%29.74 "HgN/A
11:20 AM41 °FPassing clouds.15 mph81%29.74 "HgN/A
10:50 AM43 °FPassing clouds.14 mph76%29.77 "HgN/A
10:20 AM41 °FPassing clouds.13 mph87%29.77 "HgN/A
9:50 AM39 °FClear.13 mph87%29.77 "Hg5 mi
9:20 AM37 °FFog.9 mph93%29.77 "Hg3 mi
Weather by CustomWeather, © 2015

See weather overviewHow to use our weather pages